STARLINK-31738 (59535 NORAD) Tracking and Keplerian Element Data

This shows tracking and keplerian element data for the satellite.

Feedback or suggestion? Click here.




ElementValue
Catalog59535
NameSTARLINK-31738
Epoch Orbit893
Epoch Day159.35222725
Epoch Year2024
RAAN27.3731
Inclination43
Eccentricity0.0002252
Argument of Perigee276.1261
Mean Anonmoly83.9339
Mean Motion15.40680152
Decay Rate-6.904E-05
L11 59535U 24074B 24159.35222725 -.00006904 00000+0 -15824-3 0 9996
L22 59535 43.0000 27.3731 0002252 276.1261 83.9339 15.40680152 8932



Live tracking and technical data element details for STARLINK-31738 (NORAD 59535). STARLINK-31738 can be tracked NOW for your location showing map with azimuth and elevation plus other details from your city location.







IsCatalogInMostPopularTable: catalog: 59535, numindb: 11
Update: records affected: 1



GetName: 59535 STARLINK-31738

Hit Count: updated at: Fri, 14 Jun 2024 19:38:12 GMT